Terminal Aerodrome Forecast
Issued by NWS North Platte, NE

Home | Current Version | Previous Version | Graphics & Text | Print | Product List | Glossary On
Versions: 1 2 3 4 5 6 7 8 9 10 11 12 13 14 15
000
FTUS43 KLBF 270520
TAFVTN
TAF
KVTN 270520Z 2706/2806 17014KT P6SM -TSRA OVC090CB
     FM270900 04004KT 5SM -SHRA BR OVC025
     FM271200 01005KT 3SM -SHRA BR OVC015
     FM271400 01014G20KT 5SM -SHRA OVC015
     FM271800 01013KT P6SM OVC025=

USA.gov is the U.S. government's official web portal to all federal, state and local government web resources and services.